Location: De Platvoet
(52.2667°N, 6.1667°E)
Time: 08:08:52
(UTC+00:00)

Cosmos 1726 Rocket - Pass Details

Date: 15 May 2026
Orbit: 555 x 661 km, 82.5° (Epoch: 5 June)

Event Time Altitude Azimuth Distance (km) Brightness Sun altitude
Exits shadow 21:25:49 21° 171° (S) 1,285 4.6 -13.6°
Maximum altitude 21:28:22 60° 97° (E) 639 3.4 -13.8°
Drops below altitude 10° 21:32:23 10° 17° (NNE) 1,855 6.6 -14.1°
Sets 21:34:35 0° 14° (NNE) 2,763 7.7 -14.3°
